Погода в Завражье

Россия / Вологодская область     59°26′32″N   45°51′56″E
темп.,
°C
ветер,
м/с
пор.,
м/с
влажн.,
%
обл.,
%
осадки,
мм/ч
давл.,
гПа
погр.,
м
3 марта, ср
ср300:00−5ссз61294100 0.9 999831
03:00−7ссз51292100 1.3 1001698
06:00−8сз51293100 0.1 1001639
09:00−7зсз51191100 0.3 1002767
12:00−5зсз5989100 0.1 1002911
15:00−4зсз4887100 0.3 1001995
18:00−5зюз3996100 0.3 1000468
21:00−7зюз3697100 0.6 998161
4 марта, чт
чт400:00−5зюз3995100 0.6 995475
03:00−5юз3797100 1.3 993390
06:00−5юз2497100 0.6 989141
09:00−3ссв1197100 1.9 988157
12:00−3с4894100 1.1 989651
15:00−4ссз5889100 1.3 991903
18:00−9сз4109199 0.1 994515
21:00−14сз379385 0.1 997146
5 марта, пт
пт500:00−18зсз239926 0.0 99977
03:00−20зсз239940 0.0 100044
06:00−20зсз2310064 0.0 100223
09:00−16зсз259566 0.0 1003253
12:00−11зсз368869 0.0 1003571
15:00−9сз368780 0.1 1005802
18:00−13ссз229599 0.1 100621
21:00−16ссз229598 0.1 100820
6 марта, сб
сб600:00−18сз1297100 0.0 100920
03:00−20сз22100100 0.1 101020
06:00−22зсз2210094 0.0 101120
09:00−19зсз249784 0.1 1011210
12:00−14зсз248795 0.0 1011599
15:00−12зсз358898 0.1 1010854
18:00−16з2397100 0.1 101053
21:00−20з229984 0.1 101020
7 марта, вс
вс700:00−21юз22980 0.0 100820
03:00−21ю33970 0.0 100763
06:00−20ю4109826 0.0 1004208
09:00−15ююв5129562 0.0 1001352
12:00−11ююв61293100 0.3 997715
15:00−10ююв61193100 1.0 993928
18:00−10ююв61293100 0.6 991809
21:00−10юв51193100 1.4 990713